Weather in Gstaad

Switzerland     46°28′34″N   7°17′02″E
temp.,
°C
wind,
m/s
gust,
m/s
humid.,
%
clouds,
%
prec.,
mm/h
press.,
hPa
HPBL,
m
19 april, mon
mon1923:00−4e229569 0.1 102274
02:00−3e118746 0.1 102125
05:00−6ese219433 0.0 102218
08:00−3e118523 0.0 1021166
11:00+2nne236872 0.0 10181068
14:00+4nne235795 0.1 10161598
17:00+4n226890 0.3 10161111
20:00−1ne119141 0.6 101916
20 april, tue
tue2023:00−4se219528 0.0 102114
02:00−4se219492 0.0 102016
05:00−4se219314 0.0 102014
08:00−1se11805 0.0 101843
11:00+5n116045 0.0 10151150
14:00+6nnw216396 0.9 10131207
17:00+6nnw227272 1.9 1013896
20:00+1ene119314 3.3 101512
21 april, wed
wed2123:00−2se229352 0.0 101816
02:00−2se229285 0.0 101919
05:00−2se229394 0.0 101816
08:00+1se118797 0.0 101743
11:00+6n1172100 0.1 10151051
14:00+5nw2180100 1.3 1014764
17:00+4nnw1293100 2.4 1015477
20:00+2w01100100 8.9 1016190
22 april, thu
thu2223:000sse11100100 13.6 1019106
02:000sse11100100 20.5 1019126
05:000se11100100 5.0 1018135
08:000se1110092 6.0 1019184
11:00+2n11100100 0.1 1019303
14:00+3nne129892 0.5 1018397
17:00+4nne129388 0.5 1017414
20:00+2ne229988 0.8 101982
23 april, fri
fri2323:000e229955 0.0 102168
02:00−1e229756 0.0 102183
05:00−4ese229536 0.0 102323
08:00−2ese229412 0.0 102174
11:00+3ne11874 0.0 1019491
14:00+6ene12804 0.0 1018806
17:00+7ne11783 0.0 1017756
20:00+2e219526 0.0 102022